This is the latest recevied weather packets stored in our database for station/object KA7EII-13. If no packets are shown the sender has not sent any weather packets the latest 10 day(s).
| Time | Temp. | Humidity | Pressure | Rain* | Wind** | Luminosity | Snow |
|---|---|---|---|---|---|---|---|
| 1778013745 | 16.67° C | 28% | 1099.4 hPa | 0 mm | - | 731 W/m² | - |
| 1778013441 | 16.67° C | 28% | 1099.3 hPa | 0 mm | - | 734 W/m² | - |
| 1778013138 | 17.22° C | 27% | 1099.6 hPa | 0 mm | - | 738 W/m² | - |
| 1778012834 | 17.22° C | 28% | 1099.4 hPa | 0 mm | - | 749 W/m² | - |
| 1778012530 | 16.11° C | 28% | 1099.4 hPa | 0 mm | - | 783 W/m² | - |
| 1778012227 | 17.22° C | 30% | 1099.7 hPa | 0 mm | - | 797 W/m² | - |
| 1778011925 | 16.67° C | 28% | 1099.8 hPa | 0 mm | - | 806 W/m² | - |
| 1778011623 | 16.11° C | 30% | 1099.7 hPa | 0 mm | - | 812 W/m² | - |
| 1778011319 | 16.67° C | 29% | 1099.9 hPa | 0 mm | - | 815 W/m² | - |
| 1778011015 | 17.22° C | 30% | 1099.4 hPa | 0 mm | - | 794 W/m² | - |
| 1778010713 | 17.22° C | 31% | 1099.6 hPa | 0 mm | - | 796 W/m² | - |
| 1778010410 | 16.67° C | 30% | 1099.9 hPa | 0 mm | - | 782 W/m² | - |
| 1778010106 | 16.67° C | 33% | 1099.9 hPa | 0 mm | - | 732 W/m² | - |
| 1778009802 | 16.11° C | 29% | 1099.9 hPa | 0 mm | - | 727 W/m² | - |
| 1778009499 | 15.56° C | 29% | 1100.1 hPa | 0 mm | - | 733 W/m² | - |
| 1778009198 | 16.67° C | 32% | 1100.1 hPa | 0 mm | - | 760 W/m² | - |
| 1778008895 | 16.67° C | 28% | 1100.3 hPa | 0 mm | - | 772 W/m² | - |
| 1778008594 | 16.11° C | 31% | 1100.1 hPa | 0 mm | - | 775 W/m² | - |
| 1778008292 | 15.56° C | 31% | 1100.1 hPa | 0 mm | - | 768 W/m² | - |
| 1778007987 | 16.11° C | 31% | 1100.4 hPa | 0 mm | - | 765 W/m² | - |
| 1778007682 | 15.56° C | 30% | 1100.1 hPa | 0 mm | - | 753 W/m² | - |
| 1778007379 | 15.56° C | 30% | 1100.3 hPa | 0 mm | - | 743 W/m² | - |
| 1778007075 | 16.11° C | 31% | 1100.4 hPa | 0 mm | - | 768 W/m² | - |
| 1778006772 | 15° C | 29% | 1100.4 hPa | 0 mm | - | 764 W/m² | - |
| 1778006469 | 16.11° C | 31% | 1100.3 hPa | 0 mm | - | 740 W/m² | - |
* Rain latest hour (hover to see other rain measurements)
** Current wind speed in m/s (hover to see current wind gust speed)